Simultaneous Nadir Overpasses (SNOs) Predictions

Prediction of SNOs between TERRA and METOP-C Satellite Orbit:

Table of predicted SNOs for the next 14.0 days since TLE Epoch: 1/18/2025
Index Date (TERRA) Time (TERRA) Lat,Lon (TERRA) SZA (TERRA ) Date (METOP-C) Time (METOP-C) Lat,Lon (METOP-C) SZA (METOP-C ) Distance(km) Time Diff (sec)
1 01/18/2025 15:54:35 -45.02, 92.68 108.78 01/18/2025 15:53:46 -44.93, 93.08 108.93 32.65 49
2 01/18/2025 16:43:20 46.87, -98.96 72.61 01/18/2025 16:43:51 46.86, -98.83 72.51 10.22 31
3 01/21/2025 05:34:20 45.01, 67.70 70.78 01/21/2025 05:33:22 44.91, 68.17 70.61 38.84 58
4 01/21/2025 06:23:24 -46.19,-124.23 108.34 01/21/2025 06:23:44 -46.14,-124.04 108.48 15.82 20
5 01/21/2025 06:55:00 67.51,-160.32 119.82 01/21/2025 06:56:12 67.16,-162.44 119.28 98.81 72
6 01/23/2025 19:14:12 -45.01, 42.69 109.69 01/23/2025 19:13:03 -44.88, 43.24 109.90 45.80 69
7 01/23/2025 20:03:16 45.71,-149.38 70.83 01/23/2025 20:03:27 45.70,-149.11 70.70 21.15 11
8 01/23/2025 20:42:07 -80.35, 68.16 80.14 01/23/2025 20:43:20 -79.84, 70.09 80.52 67.26 73
9 01/26/2025 09:43:17 -45.07,-174.62 110.16 01/26/2025 09:43:18 -45.02,-174.29 110.33 26.55 1
10 01/26/2025 10:26:39 65.86, 4.69 85.92 01/26/2025 10:27:52 65.72, 5.53 85.64 41.19 73
11 01/28/2025 23:23:00 45.03, 160.40 69.26 01/28/2025 23:22:54 44.94, 160.79 69.05 32.26 6
12 01/29/2025 00:11:13 -49.24, -30.36 107.64 01/29/2025 00:12:24 -49.18, -30.17 107.85 15.21 71
13 01/31/2025 13:02:50 -45.00, 135.39 111.36 01/31/2025 13:02:34 -44.94, 135.87 111.57 38.56 16



Historial Predications of SNOs between TERRA and METOP-C
